Location: Unspecified
(36.9193°S, 174.7252°E)
Time: 19:33:13
(UTC+13:00)

Envisat - Pass Details

Date: 22 September 2021
Orbit: 764 x 766 km, 98.2° (Epoch: 15 October)

Event Time Altitude Azimuth Distance (km) Brightness Sun altitude
Rises 18:40:16 0° 185° (S) 3,269 6.4 -5.4°
Reaches altitude 10° 18:43:09 10° 201° (SSW) 2,334 5.9 -6.0°
Maximum altitude 18:46:46 20° 246° (WSW) 1,746 6.0 -6.7°
Drops below altitude 10° 18:50:22 10° 291° (WNW) 2,314 6.7 -7.4°
Sets 18:53:14 0° 307° (NW) 3,232 7.0 -8.0°
